User: anonymous   Login
Location: Chanteloup
(48.8560°N, 2.7390°E)
Time: 04:42:43
(UTC+00:00)
Language:

Cosmos 2278 Rocket - Orbit

View from above orbital plane
View from above orbital plane
View from above satellite
View from above satellite

Ground track
Ground track

The orbit data is extracted from the following two-line orbital elements,

1 23088U 94023B   22024.35876573  .00000225  00000-0  14163-3 0  9990
2 23088  71.0017 351.3278 0001588  26.6077 333.5127 14.14702578433179
Epoch (UTC): 24 January 2022 08:36:37
Eccentricity: 0.0001588
inclination: 71.0017°
perigee height: 842 km
apogee height: 844 km
right ascension of ascending node: 351.3278°
argument of perigee: 26.6077°
revolutions per day: 14.14702578
mean anomaly at epoch: 333.5127°
orbit number at epoch: 43317

The dashed part of the orbit path shows where the satellite is in the earth's shadow,  

DLR